Location: Albany
(35.0000°S, 118.0000°E)
Time: 04:26:08
(UTC-04:00)

Vanguard 3 - Visible Passes

Search period start: 25 April 2018 00:00
Search period end: 05 May 2018 00:00
Orbit: 508 x 3264 km, 33.3° (Epoch: 24 April)

Date Brightness Start Highest point End Pass type
(mag) Time Alt. Az. Time Alt. Az. Time Alt. Az.
25 Apr 11.1 15:46:32 10° NNE 15:54:48 17° NE 16:04:46 10° E visible
25 Apr 10.8 17:52:57 10° NW 18:07:49 50° NE 18:26:31 10° ESE visible
26 Apr 10.8 16:40:13 10° NNW 16:52:22 34° NE 17:08:30 10° E visible
27 Apr 10.9 15:29:22 10° N 15:37:49 20° NE 15:48:35 10° E visible
27 Apr 10.5 17:36:31 10° NW 17:50:40 53° NNE 18:09:39 10° ESE visible
28 Apr 10.7 16:23:44 10° NNW 16:35:19 37° NE 16:51:38 10° E visible
29 Apr 10.6 15:12:59 11° N 15:20:55 22° NE 15:32:08 10° E visible
29 Apr 10.3 17:20:16 10° NW 17:33:37 57° NNE 17:52:40 10° ESE visible
30 Apr 10.4 16:08:36 14° NNW 16:18:22 40° NE 16:34:38 10° E visible
30 Apr 10.2 18:18:00 10° WNW 18:32:53 74° NNE 18:53:04 10° E visible
01 May 10.4 14:59:31 19° NNE 15:04:07 24° NE 15:15:30 10° E visible
01 May 10.0 17:04:11 10° NW 17:16:41 61° NNE 17:35:36 10° ESE visible
02 May 9.9 15:54:59 25° NNW 16:01:32 43° NE 16:17:34 10° E visible
02 May 10.0 18:01:59 10° WNW 18:15:58 77° NNE 18:36:05 10° E visible
03 May 10.2 14:45:46 25° NE 14:47:24 26° NE 14:58:44 10° E visible
03 May 9.8 16:50:22 20° NW 16:59:53 64° NNE 17:18:27 10° E visible
04 May 10.9 13:36:29 10° ENE 13:36:29 10° ENE 13:36:50 10° ENE visible
04 May 9.5 15:41:06 37° N 15:44:50 46° NE 16:00:26 10° E visible
04 May 9.8 17:46:05 10° WNW 17:59:09 79° NNE 18:19:01 10° E visible
